Weather in Kamennyy Klyuch

Russia / Kemerovo Oblast     54°05′33″N   86°05′48″E
temp.,
°C
wind,
m/s
gust,
m/s
humid.,
%
clouds,
%
prec.,
mm/h
press.,
hPa
HPBL,
m
6 march, sat
sat601:00−6sw92177100 0.0 10221462
04:00−7sw92177100 0.1 10221353
07:00−7sw81876100 0.1 10221056
10:00−6sw81775100 0.0 1022978
13:00−4sw91971100 0.0 10191219
16:00−3sw91970100 0.0 10171341
19:00−4sw92073100 0.0 10161179
22:00−5sw81784100 0.0 1016986
7 march, sun
sun701:00−5sw71589100 0.1 1015893
04:00−5sw71592100 0.6 1014975
07:00−6sw61394100 2.6 1016757
10:00−5wsw51093100 1.0 1018622
13:00−4wsw4792100 1.6 1020695
16:00−3sw4692100 0.6 1021647
19:00−5sw3796100 1.1 1022312
22:00−7ssw2398100 0.3 102480
8 march, mon
mon801:00−9s2299100 0.4 102451
04:00−8sse2298100 0.1 102273
07:00−7sse2798100 0.1 1021189
10:00−5sse3790100 0.0 1018236
13:000s51181100 0.0 1015491
16:000ssw71775100 0.0 10131183
19:00−1sw81779100 0.0 1013985
22:00−3sw81590100 0.0 1015960
9 march, tue
tue901:00−3wsw61295100 0.9 10181080
04:00−4wsw51294100 0.8 10201048
07:00−10wsw3994100 0.8 1023308
10:00−10sw3887100 0.0 1026319
13:00−6sw487178 0.0 1026537
16:00−5ssw377024 0.0 1025550
19:00−8s379343 0.0 1023178
22:00−6s4109699 0.1 1020323
10 march, wed
wed1001:00−3ssw61395100 0.5 1018842
04:00−3ssw51396100 0.6 1016697
07:00−2sw51296100 1.6 1017890
10:00−2wsw51094100 0.6 1017656
13:00−1sw3697100 1.1 1017537
16:000sw4996100 0.3 1015659
19:00−1s3697100 0.3 1013309
22:00−3se259799 0.0 1011145